Wind_Speed
5 5 5 4 5 7 4 7 3 2 4 17 19 23 21 24 5 5 12 22 14 11 11 9 16 7 5 6 9 7 6 7 9 9 11 12 13 14 15 17 17 16 17 18 17 15 12 13 15
6 5 6 6 6 5 3 6 14 12 7 4 16 17 19 10 27 7 25 25 17 15 9 9 9 4 2 2 5 9 7 5 5 8 9 10 10 11 11 13 14 14 15 15 13 13 13 14 14
7 10 11 5 5 3 3 6 3 16 22 13 5 17 10 15 19 12 22 25 20 17 14 10 6 3 5 5 4 5 8 5 4 5 8 9 10 11 11 12 13 11 14 12 11 12 13 15 14
5 10 13 7 10 7 3 9 1 3 14 17 9 13 10 21 9 21 20 22 19 21 18 13 4 2 5 8 11 6 1 6 4 4 7 9 10 11 12 13 13 12 13 16 12 11 15 17 17
16 13 7 6 8 3 8 17 23 9 8 19 9 10 9 19 10 18 20 22 22 24 18 12 8 4 3 5 8 6 3 2 6 6 6 8 11 12 13 14 11 13 14 17 21 15 16 16 17
8 7 5 5 4 5 7 18 21 19 12 9 12 10 12 15 14 19 22 24 25 22 24 15 8 5 5 1 2 0 6 6 6 8 10 11 11 12 12 12 13 13 15 15 23 24 21 16 18
12 5 4 6 5 6 5 8 15 13 19 19 7 7 11 19 17 20 23 23 25 25 22 24 15 9 4 7 4 3 4 9 11 10 13 14 14 12 9 7 11 11 14 15 23 25 22 20 20
10 7 4 5 3 5 10 8 21 14 15 3 6 6 4 15 16 15 17 21 25 28 30 26 23 17 9 6 5 6 8 12 13 13 15 16 15 12 9 9 12 13 16 18 22 22 22 22 22
9 6 4 3 3 6 11 12 24 21 33 29 18 19 14 15 16 17 19 22 24 28 31 31 28 24 19 10 5 3 6 12 15 14 16 18 19 13 15 15 17 14 19 21 22 22 23 23 21
11 5 7 7 11 16 21 23 15 12 21 20 21 18 16 18 22 27 30 31 31 32 30 30 30 29 25 20 12 6 4 9 12 16 18 18 19 19 16 13 19 19 21 20 23 23 21 23 20
10 6 11 20 25 30 27 26 3 11 9 13 16 17 17 19 24 28 30 30 31 31 31 30 28 28 27 25 21 16 8 8 7 13 16 16 19 19 19 18 21 24 22 22 23 21 23 21 16
14 19 16 14 20 20 19 18 25 22 12 14 16 16 15 20 23 24 27 30 32 34 34 33 31 27 25 24 23 19 17 9 9 8 7 15 16 18 18 18 21 27 28 25 24 23 21 22 22
22 18 24 31 32 29 27 20 19 17 14 12 12 11 15 16 19 21 23 27 30 34 35 34 32 30 27 24 23 22 18 16 11 8 6 8 14 18 20 20 21 27 31 27 23 27 29 21 27
15 24 21 15 15 13 19 7 6 8 10 11 11 13 13 15 17 18 23 27 30 31 34 34 33 31 28 25 22 22 19 16 15 12 6 6 8 13 23 20 20 25 32 31 26 27 28 28 29
26 12 10 8 5 6 13 6 3 9 10 11 12 10 8 11 13 18 20 23 26 29 31 34 35 32 29 27 24 20 20 17 15 13 11 6 6 13 15 23 22 24 26 35 28 25 29 28 28
5 5 4 5 8 3 4 4 4 8 11 11 9 7 6 6 10 14 16 20 24 27 30 32 35 34 31 28 26 22 21 16 12 18 16 10 4 8 15 24 21 21 23 26 30 25 25 31 29
8 3 4 5 8 2 4 3 6 8 10 8 5 4 4 2 5 9 13 17 21 26 30 32 35 35 34 28 25 23 18 20 12 13 18 15 6 6 11 20 26 26 21 22 26 35 28 32 30
1 2 2 3 5 7 4 3 5 11 9 7 6 4 3 2 2 6 10 13 17 24 28 31 33 35 35 30 27 24 20 16 16 12 14 19 11 4 6 13 19 25 20 16 19 30 31 33 38
4 3 2 3 6 3 3 4 6 10 9 11 10 8 7 5 4 5 8 9 12 19 25 30 33 34 35 34 31 30 28 21 17 14 10 18 15 8 5 9 16 24 19 13 14 22 30 32 43
5 3 4 3 5 3 2 6 6 10 12 15 13 12 11 9 8 9 9 8 9 16 21 27 30 31 32 31 28 27 26 21 17 18 12 12 14 13 7 4 17 22 21 15 12 15 21 18 42
3 3 2 4 3 3 1 6 6 9 17 14 16 15 14 13 12 12 10 9 10 15 19 23 27 28 29 28 27 27 26 24 19 18 18 10 14 14 9 3 8 17 20 18 17 18 18 22 30
4 2 3 2 3 2 3 5 5 5 9 15 22 20 18 15 14 13 11 10 11 12 15 19 23 24 24 25 27 27 26 27 24 23 22 18 12 14 10 8 3 6 21 16 19 24 25 26 31
3 3 2 3 3 3 2 2 7 3 6 10 23 23 20 17 14 13 12 10 10 12 13 16 20 20 19 21 24 26 25 23 22 21 20 18 16 15 9 10 5 5 8 15 17 20 21 28 28
3 3 6 4 3 3 1 4 6 4 6 5 13 18 16 17 17 15 11 9 10 12 12 16 18 17 17 19 21 25 25 24 23 23 22 21 19 17 7 10 9 2 6 12 10 16 23 26 23
8 5 3 4 4 5 2 2 10 7 8 12 17 13 14 18 18 16 13 12 11 11 14 15 16 18 18 18 19 25 24 22 21 22 22 24 22 19 12 9 8 5 2 11 13 15 14 19 19
4 3 4 3 2 6 2 6 6 6 10 15 14 14 15 15 17 17 14 13 11 12 16 14 16 18 19 17 20 25 22 21 19 20 20 20 20 19 13 9 7 8 5 5 6 13 14 18 18
1 4 2 2 1 2 3 7 11 5 9 11 14 14 17 14 15 16 14 13 11 14 14 15 16 16 18 18 22 24 21 20 19 19 20 18 16 16 13 9 7 7 7 4 5 11 11 14 18
1 6 2 3 3 5 5 6 6 6 8 8 12 15 14 14 11 12 13 13 12 14 13 14 18 16 18 19 22 22 19 18 18 20 21 16 13 14 14 11 9 8 8 5 4 6 10 14 19
2 1 4 4 3 3 3 8 8 8 8 7 13 10 13 15 13 13 13 11 11 13 14 16 18 17 16 20 20 18 17 17 17 20 21 15 12 13 13 14 13 10 10 8 2 5 5 13 14
4 4 4 4 3 2 3 8 5 10 13 12 15 12 14 13 11 11 13 12 13 12 15 15 17 14 19 19 17 16 14 15 16 19 17 12 12 11 14 15 16 14 12 10 5 6 2 7 10
Wind_Direction
15 16 30 58 60 60 45 23 340 153 55 43 68 81 83 49 2 71 354 5 17 22 360 356 13 9 18 86 104 92 108 131 138 134 168 178 171 169 164 161 161 161 155 150 151 149 142 138 138
13 34 54 59 69 57 54 350 30 59 69 34 43 43 53 53 26 30 7 2 12 37 35 30 22 28 12 49 115 110 107 110 149 165 181 183 183 179 175 167 167 165 161 154 153 150 147 143 145
56 60 54 62 55 55 358 347 297 61 46 53 70 39 37 342 24 7 14 6 10 29 42 46 16 38 50 40 63 119 113 112 138 170 184 185 193 188 179 172 171 173 161 159 152 153 154 150 151
99 65 72 69 82 32 47 345 262 22 32 44 92 72 75 41 42 21 15 17 11 21 22 31 28 47 70 65 51 66 89 137 144 166 177 178 182 184 179 177 177 180 175 178 170 153 160 154 152
71 69 61 81 61 88 31 37 52 63 78 57 85 70 58 41 31 21 20 18 19 17 16 24 24 73 141 93 91 63 26 258 163 169 191 189 181 183 185 186 208 235 222 206 186 164 161 156 157
68 88 80 86 114 18 42 47 51 60 68 59 69 86 45 50 34 31 24 23 20 15 19 12 8 12 32 349 329 16 265 323 244 197 206 206 194 197 204 232 246 226 217 211 209 169 162 166 158
93 73 93 118 114 36 5 59 34 46 50 28 85 78 38 44 28 21 22 17 23 20 19 21 6 358 321 336 336 189 186 281 281 227 206 211 214 219 234 249 215 203 189 177 167 167 159 169 156
96 90 87 28 107 52 23 77 59 43 28 79 81 46 27 35 25 17 10 17 18 20 21 17 18 12 349 306 305 269 267 250 247 252 228 212 220 232 230 205 184 171 173 169 163 165 169 165 154
65 59 53 109 86 139 76 87 68 68 69 74 77 76 64 44 28 21 21 21 19 21 20 17 13 10 7 335 327 302 243 238 241 241 250 226 217 229 230 221 188 185 169 169 169 174 172 179 173
64 74 46 45 92 96 75 74 84 74 59 55 66 65 52 36 28 28 28 24 20 17 16 15 15 10 360 359 340 325 283 242 236 228 235 229 226 217 226 218 190 187 185 176 176 176 183 183 181
33 89 96 68 91 93 87 69 94 86 46 61 66 56 42 30 26 25 25 26 22 16 13 10 8 9 8 1 347 342 319 288 261 255 249 230 225 224 225 225 205 191 192 186 179 184 185 189 192
80 75 99 101 93 85 75 98 77 84 96 93 80 65 44 35 30 25 19 15 14 11 9 5 4 1 3 5 2 347 339 315 291 266 274 247 232 230 227 228 213 190 186 187 183 190 193 187 202
87 96 97 108 102 99 98 83 101 88 102 96 83 59 47 36 28 21 17 10 7 7 6 2 1 4 360 355 2 2 337 328 312 295 280 263 240 235 234 219 224 216 208 212 202 200 206 202 201
126 112 111 110 106 108 97 86 90 111 110 101 86 66 43 27 18 8 8 5 3 2 4 2 1 1 359 357 356 359 3 340 327 306 307 285 245 236 233 226 227 227 214 208 203 207 207 206 202
111 90 86 44 118 120 90 28 68 145 133 108 93 78 45 21 7 11 5 0 1 2 3 4 2 359 0 357 354 353 352 356 331 311 325 318 256 241 241 220 229 231 233 211 208 212 209 207 206
56 61 51 349 15 28 136 226 198 169 143 117 108 96 78 40 15 6 5 1 360 358 1 1 2 359 360 359 353 350 350 346 341 340 315 329 288 247 233 225 227 237 246 239 213 211 213 199 206
16 83 24 351 28 325 57 185 182 167 160 149 156 144 119 69 6 360 359 357 356 354 355 357 358 1 358 357 355 351 347 350 322 324 305 326 314 261 243 224 222 228 242 229 233 212 214 200 203
20 30 302 262 329 33 78 157 169 179 193 198 221 217 223 218 314 339 342 344 348 348 349 352 355 356 359 354 353 353 350 349 351 272 321 319 321 289 251 231 209 212 225 249 262 221 220 217 201
137 143 161 303 321 121 299 187 216 206 228 236 243 242 242 243 256 286 297 315 330 343 345 348 351 354 355 359 355 355 355 349 348 347 306 311 316 327 294 234 200 203 223 217 232 259 244 224 192
63 66 357 304 343 89 316 256 251 240 239 240 248 245 246 246 245 254 266 288 319 340 343 347 349 351 353 360 355 354 353 351 349 349 332 313 313 325 334 229 211 209 211 220 228 240 231 190 188
46 81 276 229 345 64 25 293 241 251 244 257 256 257 254 252 246 249 255 278 313 330 339 346 349 348 350 354 353 349 351 355 346 344 349 338 316 325 324 308 202 197 217 218 206 238 226 180 181
9 297 265 146 57 323 58 286 284 251 260 260 261 254 257 253 245 246 246 271 300 321 335 344 347 345 347 351 355 355 355 356 355 343 342 347 318 323 312 308 211 191 194 223 234 202 204 192 196
283 358 38 81 93 24 345 52 268 345 274 258 253 250 252 259 248 240 251 268 297 319 330 341 343 340 342 347 351 351 351 351 349 346 337 332 340 333 315 306 311 237 186 210 229 192 194 205 207
313 46 43 51 69 8 271 109 281 218 219 265 269 253 252 254 249 257 254 265 299 312 327 334 337 335 335 343 345 347 348 348 347 347 346 340 336 344 328 305 315 307 207 203 203 200 188 201 203
26 45 352 357 8 235 255 38 245 248 242 248 268 266 275 258 252 262 272 279 293 314 327 332 333 333 334 338 340 345 345 345 346 347 348 347 341 344 338 312 297 324 309 210 189 205 188 202 210
32 82 126 277 296 282 298 238 259 232 275 286 274 263 280 256 261 271 281 288 302 314 326 329 334 333 337 335 336 342 341 343 344 345 346 348 348 344 347 330 293 292 313 238 224 203 181 207 209
351 51 189 93 33 333 267 291 302 276 280 273 271 272 274 282 287 281 285 298 300 313 325 328 329 330 336 331 336 340 339 342 342 344 343 346 351 359 355 336 309 294 289 272 218 217 203 211 214
83 156 50 22 10 310 294 284 242 289 281 285 280 273 291 317 306 309 295 301 298 318 323 327 331 326 329 331 337 338 338 338 338 340 343 344 358 6 4 354 329 323 291 279 237 240 211 205 215
80 102 62 126 137 181 304 273 217 235 259 272 281 288 311 314 317 319 315 307 308 320 326 322 329 319 326 333 336 337 338 338 335 340 344 355 11 5 4 1 349 315 306 283 278 271 252 213 218
163 176 146 121 216 209 156 273 232 234 270 284 278 290 313 307 310 318 317 312 315 315 321 316 317 322 331 331 333 331 334 339 340 347 359 10 13 6 2 0 358 351 340 313 292 320 260 233 223
Height
1494 1493 1493 1494 1511 1527 1549 1549 1541 1540 1543 1547 1544 1543 1553 1555 1554 1561 1562 1556 1552 1549 1546 1544 1542 1541 1539 1537 1536 1536 1537 1537 1538 1539 1541 1542 1542 1544 1543 1545 1546 1548 1549 1550 1552 1553 1555 1557 1559
1495 1494 1495 1498 1530 1549 1553 1551 1548 1546 1548 1546 1544 1548 1549 1558 1559 1563 1560 1556 1552 1548 1547 1545 1544 1541 1540 1539 1537 1535 1537 1538 1539 1541 1543 1543 1544 1544 1546 1546 1548 1549 1550 1552 1553 1554 1556 1558 1560
1496 1495 1501 1524 1554 1567 1563 1559 1555 1551 1549 1547 1551 1554 1560 1569 1570 1569 1566 1559 1554 1548 1546 1545 1544 1542 1540 1538 1537 1537 1537 1540 1541 1542 1543 1543 1545 1545 1547 1547 1548 1551 1551 1552 1554 1555 1557 1558 1561
1497 1500 1519 1545 1563 1567 1565 1561 1555 1554 1555 1555 1556 1564 1575 1577 1575 1572 1567 1562 1555 1552 1548 1545 1544 1542 1541 1539 1538 1538 1541 1540 1541 1543 1544 1544 1545 1546 1547 1548 1548 1550 1551 1551 1553 1556 1558 1559 1561
1499 1510 1541 1561 1566 1567 1565 1562 1557 1557 1562 1563 1561 1574 1577 1578 1577 1573 1567 1563 1557 1554 1548 1545 1544 1542 1540 1539 1538 1537 1542 1543 1542 1543 1545 1545 1546 1547 1548 1549 1549 1549 1550 1551 1552 1553 1560 1560 1563
1503 1515 1556 1570 1568 1567 1567 1566 1564 1565 1567 1568 1570 1574 1584 1583 1577 1575 1572 1566 1560 1556 1551 1546 1544 1542 1541 1539 1536 1535 1542 1544 1543 1542 1545 1546 1546 1547 1547 1549 1548 1547 1548 1548 1550 1555 1557 1562 1564
1510 1528 1558 1566 1569 1570 1571 1570 1572 1572 1572 1574 1575 1580 1589 1582 1580 1576 1572 1568 1564 1559 1554 1548 1544 1543 1541 1540 1539 1537 1538 1542 1543 1542 1542 1544 1545 1546 1547 1546 1548 1547 1549 1549 1550 1555 1558 1561 1565
1514 1528 1555 1568 1571 1581 1577 1576 1579 1577 1580 1578 1578 1585 1589 1585 1582 1579 1574 1569 1564 1560 1555 1551 1548 1544 1543 1542 1541 1542 1540 1540 1540 1541 1542 1542 1543 1545 1547 1547 1548 1549 1550 1551 1551 1555 1559 1560 1564
1517 1545 1569 1570 1571 1582 1580 1579 1583 1588 1582 1583 1586 1589 1590 1587 1582 1578 1573 1569 1564 1559 1554 1553 1550 1547 1545 1542 1541 1540 1539 1539 1539 1538 1540 1540 1542 1543 1545 1545 1548 1549 1551 1551 1553 1555 1559 1561 1564
1526 1565 1575 1573 1572 1581 1585 1583 1584 1590 1589 1590 1590 1591 1589 1586 1580 1575 1571 1568 1564 1560 1557 1555 1552 1549 1547 1543 1540 1539 1538 1538 1538 1537 1538 1538 1539 1542 1543 1545 1546 1549 1551 1551 1553 1556 1559 1561 1564
1550 1570 1577 1580 1580 1580 1585 1588 1589 1589 1595 1596 1594 1591 1589 1585 1580 1576 1574 1572 1569 1566 1562 1558 1555 1551 1547 1545 1542 1539 1537 1536 1535 1536 1535 1535 1537 1539 1540 1542 1544 1547 1550 1551 1553 1557 1557 1561 1564
1563 1575 1577 1584 1583 1583 1586 1590 1594 1594 1599 1598 1595 1592 1590 1586 1584 1581 1578 1575 1571 1567 1564 1560 1556 1552 1550 1546 1543 1540 1536 1535 1534 1534 1533 1532 1533 1535 1537 1539 1541 1545 1548 1551 1553 1556 1558 1560 1563
1569 1580 1582 1585 1586 1588 1589 1593 1594 1599 1599 1598 1596 1593 1590 1588 1586 1585 1582 1579 1575 1569 1565 1561 1557 1552 1549 1546 1542 1539 1536 1535 1533 1532 1531 1530 1531 1532 1533 1535 1538 1541 1543 1547 1550 1552 1556 1557 1561
1578 1582 1585 1589 1588 1591 1590 1596 1595 1602 1601 1599 1597 1594 1592 1590 1588 1586 1582 1580 1576 1572 1567 1563 1558 1554 1550 1546 1542 1541 1536 1535 1533 1531 1528 1527 1526 1527 1528 1530 1533 1536 1539 1540 1546 1548 1551 1555 1560
1580 1584 1588 1591 1590 1592 1590 1598 1600 1600 1600 1599 1596 1595 1593 1591 1589 1586 1585 1582 1578 1575 1571 1564 1560 1556 1551 1546 1541 1538 1537 1531 1530 1530 1527 1526 1524 1524 1524 1526 1529 1530 1534 1529 1542 1545 1549 1552 1556
1582 1586 1595 1593 1591 1592 1592 1604 1599 1599 1599 1597 1596 1595 1593 1591 1589 1587 1586 1583 1580 1576 1572 1567 1562 1557 1552 1547 1541 1536 1534 1530 1525 1526 1527 1524 1521 1521 1521 1523 1525 1527 1529 1531 1536 1540 1543 1547 1552
1593 1598 1595 1595 1592 1592 1593 1600 1598 1598 1597 1595 1595 1594 1592 1590 1588 1586 1585 1583 1580 1577 1573 1568 1563 1556 1552 1548 1542 1537 1532 1527 1525 1524 1525 1522 1519 1518 1518 1520 1522 1523 1523 1523 1523 1533 1539 1542 1547
1595 1600 1601 1602 1596 1595 1597 1599 1598 1598 1597 1594 1593 1592 1591 1589 1586 1585 1584 1582 1579 1577 1573 1569 1564 1557 1552 1547 1541 1537 1533 1530 1524 1522 1528 1523 1518 1516 1515 1515 1517 1521 1522 1523 1525 1528 1533 1536 1541
1600 1601 1600 1598 1597 1597 1598 1599 1597 1596 1595 1593 1591 1589 1588 1586 1585 1583 1582 1580 1578 1576 1573 1568 1563 1557 1551 1545 1539 1535 1531 1529 1526 1523 1520 1522 1518 1515 1512 1513 1513 1516 1520 1520 1522 1523 1527 1526 1530
1598 1599 1603 1599 1598 1598 1601 1600 1596 1594 1591 1590 1588 1586 1584 1584 1583 1581 1579 1577 1575 1572 1570 1566 1562 1557 1551 1547 1542 1538 1533 1529 1527 1523 1523 1520 1515 1515 1511 1510 1511 1513 1515 1517 1520 1520 1520 1525 1524
1599 1600 1600 1601 1600 1600 1601 1602 1595 1589 1588 1586 1584 1583 1582 1580 1579 1578 1577 1575 1573 1570 1567 1564 1560 1556 1551 1547 1543 1538 1533 1528 1524 1523 1521 1516 1511 1513 1510 1508 1507 1508 1512 1515 1514 1518 1522 1522 1526
1599 1597 1596 1597 1603 1611 1605 1623 1596 1588 1585 1583 1580 1579 1578 1577 1576 1575 1574 1572 1570 1567 1565 1562 1558 1554 1551 1547 1543 1539 1534 1530 1527 1522 1518 1515 1518 1516 1509 1507 1506 1506 1509 1509 1512 1513 1519 1522 1525
1599 1596 1596 1598 1608 1608 1609 1620 1598 1589 1585 1580 1575 1574 1574 1574 1573 1572 1570 1569 1568 1565 1563 1560 1556 1553 1550 1547 1544 1539 1534 1532 1529 1525 1521 1518 1516 1513 1504 1504 1504 1503 1506 1508 1509 1507 1512 1520 1522
1598 1598 1602 1608 1614 1633 1607 1615 1609 1594 1582 1575 1571 1570 1571 1570 1569 1569 1569 1568 1566 1563 1561 1557 1554 1551 1549 1546 1543 1538 1534 1529 1526 1523 1519 1516 1511 1507 1501 1505 1502 1502 1502 1504 1506 1508 1507 1515 1518
1600 1606 1611 1604 1626 1624 1616 1625 1597 1579 1575 1573 1570 1570 1568 1567 1567 1566 1566 1566 1563 1561 1559 1555 1552 1550 1547 1544 1541 1537 1533 1529 1526 1522 1518 1513 1508 1504 1504 1503 1502 1500 1501 1501 1503 1506 1507 1512 1516
1608 1612 1632 1620 1645 1637 1617 1627 1588 1573 1571 1569 1568 1566 1565 1564 1564 1564 1563 1563 1561 1559 1556 1553 1550 1547 1545 1543 1540 1536 1531 1528 1525 1522 1519 1516 1511 1508 1505 1503 1502 1501 1499 1499 1496 1502 1504 1511 1513
1609 1619 1614 1618 1625 1632 1630 1606 1580 1569 1566 1565 1564 1564 1563 1563 1562 1562 1561 1560 1558 1556 1553 1551 1548 1546 1543 1541 1538 1534 1530 1527 1524 1522 1519 1516 1513 1509 1505 1503 1500 1500 1500 1499 1498 1500 1503 1507 1511
1604 1612 1621 1629 1643 1642 1635 1629 1604 1571 1565 1562 1561 1560 1561 1560 1560 1559 1558 1556 1555 1553 1551 1548 1546 1544 1542 1539 1536 1533 1529 1527 1523 1521 1517 1514 1511 1509 1507 1505 1503 1500 1500 1499 1497 1499 1501 1505 1508
1612 1613 1621 1625 1630 1650 1666 1601 1576 1568 1561 1561 1559 1559 1560 1559 1558 1557 1554 1553 1552 1550 1549 1547 1545 1542 1540 1537 1534 1531 1528 1526 1523 1520 1516 1512 1510 1509 1506 1504 1502 1500 1499 1496 1495 1499 1499 1502 1505
1602 1604 1608 1625 1618 1629 1644 1606 1561 1560 1559 1559 1558 1559 1559 1557 1556 1555 1552 1551 1549 1548 1547 1545 1544 1541 1538 1535 1532 1530 1527 1525 1522 1518 1515 1512 1510 1507 1505 1504 1501 1497 1496 1497 1497 1499 1499 1499 1502